Windsor Locks, CT

8:44 PM EST on February 24, 2017 (GMT -0500)
Bradley International

Weather History for KBDL - October, 2012

Change the Weather History Date:

Tuesday, October 9, 2012

  Actual Average Record
Temperature  
Mean Temperature 52 °F 54 °F  
Max Temperature 58 °F 66 °F 85 °F (2011)
Min Temperature 46 °F 43 °F 28 °F (1988)
Degree Days  
Heating Degree Days 13 11  
Month to date heating degree days 60 86  
Since 1 July heating degree days 153 208  
Cooling Degree Days 0 0  
Month to date cooling degree days 0 5  
Year to date cooling degree days 980 754  
Moisture  
Dew Point 47 °F    
Average Humidity 83    
Maximum Humidity 93    
Minimum Humidity 72    
Precipitation  
Precipitation T in 0.15 in 1.91 in (1977)
Month to date precipitation 1.10 1.36  
Year to date precipitation 30.59 35.51  
Snow  
Snow 0.00 in 0.00 in T in (1972)
Month to date snowfall 0.0 0.0  
Since 1 July snowfall 0.0 0.0  
Since 1 September snowfall 0.0 0.0  
Snow Depth -    
Sea Level Pressure  
Sea Level Pressure 30.20 in    
Wind  
Wind Speed 6 mph (North)    
Max Wind Speed 12 mph    
Max Gust Speed 15 mph    
Visibility 9 miles    
Events Rain    
T = Trace of Precipitation, MM = Missing Value Source: NWS Daily Summary

Daily Weather History Graph

Daily Weather History Graph

Search for Another Location

Airport or City:

Trip Planner

Search our weather history database for the weather conditions in past years. The results will help you decide how hot, cold, wet, or windy it might be!

Date:

Astronomy

Oct. 09, 2012 Rise Set
Actual Time 6:56 AM EDT 6:18 PM EDT
Civil Twilight 6:28 AM EDT 6:46 PM EDT
Nautical Twilight 5:56 AM EDT 7:18 PM EDT
Astronomical Twilight 5:24 AM EDT 7:50 PM EDT
Moon 12:25 AM EDT (10/9) 2:48 PM EDT (10/9)
Length of Visible Light 12h 17m
Length of Day
11h 21m
Last Quarter, 37% of the Moon is Illuminated
Oct 9
Last Quarter
Oct 15
New
Oct 21
First Quarter
Oct 29
Full
Nov 6
Last Quarter

Hourly Weather History & Observations

Time (EDT) Temp. Windchill Dew Point Humidity Pressure Visibility Wind Dir Wind Speed Gust Speed Precip Events Conditions
12:51 AM 46.0 °F 43.9 °F 44.1 °F 93% 30.27 in 10.0 mi North 4.6 mph - N/A   Mostly Cloudy
1:51 AM 46.0 °F 44.8 °F 44.1 °F 93% 30.27 in 10.0 mi North 3.5 mph - N/A   Mostly Cloudy
2:51 AM 46.0 °F 43.9 °F 43.0 °F 89% 30.25 in 10.0 mi North 4.6 mph - N/A   Mostly Cloudy
3:51 AM 46.4 °F 44.3 °F 44.6 °F 93% 30.25 in 10.0 mi North 4.6 mph - N/A   Mostly Cloudy
4:44 AM 46.4 °F 43.5 °F 44.6 °F 93% 30.25 in 10.0 mi North 5.8 mph - N/A   Mostly Cloudy
4:51 AM 46.9 °F - 44.1 °F 90% 30.25 in 10.0 mi North 5.8 mph - N/A   Mostly Cloudy
5:51 AM 46.9 °F - 44.1 °F 90% 30.25 in 10.0 mi North 6.9 mph - N/A   Mostly Cloudy
6:32 AM 46.4 °F 43.5 °F 44.6 °F 93% 30.24 in 10.0 mi North 5.8 mph - N/A   Mostly Cloudy
6:51 AM 46.9 °F - 44.1 °F 90% 30.25 in 10.0 mi North 4.6 mph - N/A   Mostly Cloudy
7:51 AM 48.2 °F - 44.6 °F 87% 30.25 in 10.0 mi North 6.9 mph - N/A   Mostly Cloudy
8:51 AM 48.9 °F - 45.0 °F 86% 30.25 in 10.0 mi North 8.1 mph - 0.00 in Rain Light Rain
9:51 AM 50.0 °F - 44.6 °F 82% 30.25 in 10.0 mi North 5.8 mph - N/A Rain Light Rain
10:51 AM 52.0 °F - 46.0 °F 80% 30.24 in 10.0 mi North 8.1 mph - 0.00 in   Overcast
11:51 AM 55.9 °F - 46.9 °F 72% 30.23 in 10.0 mi North 8.1 mph - N/A   Overcast
12:51 PM 55.0 °F - 46.9 °F 74% 30.21 in 10.0 mi North 9.2 mph - N/A   Overcast
1:51 PM 54.0 °F - 46.9 °F 77% 30.19 in 10.0 mi North 10.4 mph - N/A   Overcast
2:51 PM 54.0 °F - 48.9 °F 83% 30.18 in 7.0 mi North 6.9 mph - 0.00 in   Light Drizzle
3:13 PM 53.6 °F - 50.0 °F 88% 30.17 in 2.5 mi North 6.9 mph - 0.00 in   Light Drizzle
3:26 PM 53.6 °F - 51.8 °F 94% 30.17 in 5.0 mi North 5.8 mph - 0.00 in   Light Drizzle
3:39 PM 55.4 °F - 51.8 °F 88% 30.16 in 10.0 mi NNW 5.8 mph - 0.00 in   Overcast
3:51 PM 55.9 °F - 50.0 °F 80% 30.17 in 10.0 mi North 8.1 mph - 0.00 in   Mostly Cloudy
4:51 PM 55.9 °F - 48.9 °F 77% 30.16 in 10.0 mi North 5.8 mph - N/A   Overcast
5:51 PM 55.0 °F - 48.0 °F 77% 30.15 in 10.0 mi North 6.9 mph - N/A   Overcast
5:56 PM 55.4 °F - 48.2 °F 77% 30.15 in 10.0 mi North 6.9 mph - N/A   Overcast
6:51 PM 55.0 °F - 48.0 °F 77% 30.15 in 10.0 mi NNE 6.9 mph - N/A   Overcast
7:51 PM 54.0 °F - 48.0 °F 80% 30.15 in 8.0 mi NE 6.9 mph - 0.00 in   Light Drizzle
8:51 PM 54.0 °F - 48.0 °F 80% 30.15 in 10.0 mi NNE 4.6 mph - 0.00 in   Light Drizzle
9:51 PM 54.0 °F - 48.0 °F 80% 30.15 in 10.0 mi NE 4.6 mph - 0.00 in   Overcast
10:28 PM 53.6 °F - 48.2 °F 82% 30.15 in 10.0 mi NNE 3.5 mph - N/A   Overcast
10:51 PM 54.0 °F - 48.0 °F 80% 30.14 in 10.0 mi ENE 3.5 mph - N/A   Overcast
11:51 PM 53.1 °F - 46.9 °F 80% 30.12 in 10.0 mi NNE 5.8 mph - N/A   Overcast